Time,TemperatureF,DewpointF,PressureIn,WindDirection,WindDirectionDegrees,WindSpeedMPH,WindSpeedGustMPH,Humidity,HourlyPrecipIn,Conditions,Clouds,dailyrainin,SoftwareType,DateUTC
2013-02-10 00:01:00,34.0,30.0,30.10,SE,134,0.0,-999.0,84,-99.99,,,-99.99,,2013-02-10 08:01:00,
2013-02-10 00:11:00,34.0,30.0,30.10,SE,134,0.0,-999.0,84,-99.99,,,-99.99,,2013-02-10 08:11:00,
2013-02-10 00:21:00,34.0,30.0,30.11,SE,134,0.0,-999.0,85,-99.99,,,-99.99,,2013-02-10 08:21:00,
2013-02-10 00:31:00,33.0,29.0,30.11,SE,134,0.0,-999.0,85,-99.99,,,-99.99,,2013-02-10 08:31:00,
2013-02-10 00:43:00,33.0,29.0,30.11,SE,134,0.0,-999.0,85,-99.99,,,-99.99,,2013-02-10 08:43:00,
2013-02-10 00:52:00,33.0,29.0,30.10,SE,134,0.0,-999.0,86,-99.99,,,-99.99,,2013-02-10 08:52:00,
2013-02-10 01:01:00,33.0,30.0,30.09,SE,134,0.0,-999.0,87,-99.99,,,-99.99,,2013-02-10 09:01:00,
2013-02-10 01:11:00,33.0,30.0,30.09,SE,134,0.0,-999.0,87,-99.99,,,-99.99,,2013-02-10 09:11:00,
2013-02-10 01:21:00,33.0,30.0,30.10,SE,134,0.0,-999.0,87,-99.99,,,-99.99,,2013-02-10 09:21:00,
2013-02-10 01:31:00,32.0,29.0,30.10,SE,134,0.0,-999.0,87,-99.99,,,-99.99,,2013-02-10 09:31:00,
2013-02-10 01:41:00,32.0,29.0,30.10,SE,134,0.0,-999.0,87,-99.99,,,-99.99,,2013-02-10 09:41:00,
2013-02-10 01:51:00,32.0,29.0,30.09,SE,134,0.0,-999.0,88,-99.99,,,-99.99,,2013-02-10 09:51:00,
2013-02-10 02:01:00,32.0,29.0,30.09,SE,134,0.0,-999.0,88,-99.99,,,-99.99,,2013-02-10 10:01:00,
2013-02-10 02:11:00,32.0,29.0,30.09,SE,134,0.0,-999.0,88,-99.99,,,-99.99,,2013-02-10 10:11:00,
2013-02-10 02:21:00,32.0,29.0,30.10,SE,134,0.0,-999.0,89,-99.99,,,-99.99,,2013-02-10 10:21:00,
2013-02-10 02:31:00,31.0,28.0,30.10,SE,134,0.0,-999.0,89,-99.99,,,-99.99,,2013-02-10 10:31:00,
2013-02-10 02:41:00,31.0,28.0,30.10,SE,134,0.0,-999.0,89,-99.99,,,-99.99,,2013-02-10 10:41:00,
2013-02-10 02:51:00,31.0,28.0,30.10,SE,134,0.0,-999.0,90,-99.99,,,-99.99,,2013-02-10 10:51:00,
2013-02-10 03:01:00,31.0,28.0,30.10,SE,134,0.0,-999.0,90,-99.99,,,-99.99,,2013-02-10 11:01:00,
2013-02-10 03:11:00,31.0,28.0,30.10,SE,134,0.0,-999.0,90,-99.99,,,-99.99,,2013-02-10 11:11:00,
2013-02-10 03:21:00,31.0,28.0,30.10,SE,134,0.0,-999.0,90,-99.99,,,-99.99,,2013-02-10 11:21:00,
2013-02-10 03:31:00,31.0,28.0,30.10,SE,134,0.0,-999.0,90,-99.99,,,-99.99,,2013-02-10 11:31:00,
2013-02-10 03:42:00,31.0,28.0,30.10,SE,134,0.0,-999.0,90,-99.99,,,-99.99,,2013-02-10 11:42:00,
2013-02-10 03:52:00,31.0,28.0,30.09,SE,134,0.0,-999.0,90,-99.99,,,-99.99,,2013-02-10 11:52:00,
2013-02-10 04:01:00,30.0,28.0,30.09,SE,134,0.0,-999.0,91,-99.99,,,-99.99,,2013-02-10 12:01:00,
2013-02-10 04:12:00,30.0,28.0,30.09,SE,134,0.0,-999.0,91,-99.99,,,-99.99,,2013-02-10 12:12:00,
2013-02-10 04:21:00,30.0,28.0,30.09,SE,134,0.0,-999.0,91,-99.99,,,-99.99,,2013-02-10 12:21:00,
2013-02-10 04:32:00,30.0,28.0,30.09,SE,134,0.0,-999.0,91,-99.99,,,-99.99,,2013-02-10 12:32:00,
2013-02-10 04:41:00,30.0,28.0,30.09,SE,134,0.0,-999.0,91,-99.99,,,-99.99,,2013-02-10 12:41:00,
2013-02-10 04:52:00,30.0,28.0,30.09,SE,134,0.0,-999.0,91,-99.99,,,-99.99,,2013-02-10 12:52:00,
2013-02-10 05:02:00,30.0,28.0,30.09,SE,134,0.0,-999.0,91,-99.99,,,-99.99,,2013-02-10 13:02:00,
2013-02-10 05:11:00,30.0,28.0,30.09,SE,134,0.0,-999.0,91,-99.99,,,-99.99,,2013-02-10 13:11:00,
2013-02-10 05:21:00,30.0,28.0,30.10,SE,134,0.0,-999.0,91,-99.99,,,-99.99,,2013-02-10 13:21:00,
2013-02-10 05:31:00,29.0,27.0,30.10,SE,134,0.0,-999.0,91,-99.99,,,-99.99,,2013-02-10 13:31:00,
2013-02-10 05:41:00,29.0,27.0,30.10,SE,134,0.0,-999.0,91,-99.99,,,-99.99,,2013-02-10 13:41:00,
2013-02-10 05:51:00,29.0,27.0,30.10,SE,134,0.0,-999.0,92,-99.99,,,-99.99,,2013-02-10 13:51:00,
2013-02-10 06:01:00,29.0,27.0,30.10,SE,134,0.0,-999.0,92,-99.99,,,-99.99,,2013-02-10 14:01:00,
2013-02-10 06:11:00,29.0,27.0,30.10,SE,134,0.0,-999.0,92,-99.99,,,-99.99,,2013-02-10 14:11:00,
2013-02-10 06:21:00,29.0,27.0,30.11,SE,134,0.0,-999.0,92,-99.99,,,-99.99,,2013-02-10 14:21:00,
2013-02-10 06:31:00,29.0,27.0,30.11,SE,134,0.0,-999.0,92,-99.99,,,-99.99,,2013-02-10 14:31:00,
2013-02-10 06:41:00,29.0,27.0,30.11,SE,134,0.0,-999.0,92,-99.99,,,-99.99,,2013-02-10 14:41:00,
2013-02-10 06:52:00,29.0,27.0,30.11,SE,134,0.0,-999.0,92,-99.99,,,-99.99,,2013-02-10 14:52:00,
2013-02-10 07:01:00,29.0,27.0,30.11,SE,134,0.0,-999.0,92,-99.99,,,-99.99,,2013-02-10 15:01:00,
2013-02-10 07:11:00,29.0,27.0,30.11,SE,134,0.0,-999.0,92,-99.99,,,-99.99,,2013-02-10 15:11:00,
2013-02-10 07:21:00,29.0,27.0,30.11,SE,134,0.0,-999.0,92,-99.99,,,-99.99,,2013-02-10 15:21:00,
2013-02-10 07:31:00,28.0,26.0,30.11,SE,134,0.0,-999.0,92,-99.99,,,-99.99,,2013-02-10 15:31:00,
2013-02-10 07:41:00,28.0,26.0,30.11,SE,134,0.0,-999.0,92,-99.99,,,-99.99,,2013-02-10 15:41:00,
2013-02-10 07:51:00,28.0,26.0,30.12,SE,134,0.0,-999.0,92,-99.99,,,-99.99,,2013-02-10 15:51:00,
2013-02-10 08:01:00,28.0,26.0,30.12,SE,134,0.0,-999.0,93,-99.99,,,-99.99,,2013-02-10 16:01:00,
2013-02-10 08:11:00,29.0,27.0,30.13,SE,134,0.0,-999.0,93,-99.99,,,-99.99,,2013-02-10 16:11:00,
2013-02-10 08:21:00,29.0,27.0,30.13,SE,134,0.0,-999.0,93,-99.99,,,-99.99,,2013-02-10 16:21:00,
2013-02-10 08:32:00,30.0,28.0,30.13,SE,134,0.0,-999.0,94,-99.99,,,-99.99,,2013-02-10 16:32:00,
2013-02-10 08:42:00,32.0,30.0,30.13,SE,134,0.0,-999.0,94,-99.99,,,-99.99,,2013-02-10 16:42:00,
2013-02-10 08:51:00,32.0,30.0,30.13,SE,134,0.0,-999.0,94,-99.99,,,-99.99,,2013-02-10 16:51:00,
2013-02-10 09:01:00,34.0,32.0,30.13,SE,134,0.0,-999.0,94,-99.99,,,-99.99,,2013-02-10 17:01:00,
2013-02-10 09:11:00,34.0,32.0,30.13,SE,134,0.0,-999.0,94,-99.99,,,-99.99,,2013-02-10 17:11:00,
2013-02-10 09:21:00,36.0,33.0,30.13,SE,134,0.0,-999.0,90,-99.99,,,-99.99,,2013-02-10 17:21:00,
2013-02-10 09:32:00,37.0,34.0,30.13,SE,134,0.0,-999.0,87,-99.99,,,-99.99,,2013-02-10 17:32:00,
2013-02-10 09:42:00,39.0,35.0,30.13,SE,134,0.0,-999.0,84,-99.99,,,-99.99,,2013-02-10 17:42:00,
2013-02-10 09:52:00,39.0,35.0,30.13,SE,134,0.0,-999.0,84,-99.99,,,-99.99,,2013-02-10 17:52:00,
2013-02-10 10:01:00,40.0,35.0,30.13,SSE,156,0.0,-999.0,81,-99.99,,,-99.99,,2013-02-10 18:01:00,
2013-02-10 10:11:00,41.0,35.0,30.13,East,91,0.0,-999.0,79,-99.99,,,-99.99,,2013-02-10 18:11:00,
2013-02-10 10:21:00,41.0,35.0,30.13,East,91,0.0,-999.0,79,-99.99,,,-99.99,,2013-02-10 18:21:00,
2013-02-10 10:31:00,43.0,36.0,30.12,East,90,0.0,-999.0,77,-99.99,,,-99.99,,2013-02-10 18:31:00,
2013-02-10 10:42:00,43.0,36.0,30.12,East,90,0.0,-999.0,77,-99.99,,,-99.99,,2013-02-10 18:42:00,
2013-02-10 10:52:00,45.0,37.0,30.12,East,90,0.0,-999.0,73,-99.99,,,-99.99,,2013-02-10 18:52:00,
2013-02-10 11:01:00,46.0,38.0,30.12,East,79,0.0,-999.0,73,-99.99,,,-99.99,,2013-02-10 19:01:00,
2013-02-10 11:11:00,47.0,38.0,30.11,East,79,0.0,-999.0,72,-99.99,,,-99.99,,2013-02-10 19:11:00,
2013-02-10 11:21:00,47.0,38.0,30.11,East,79,0.0,-999.0,72,-99.99,,,-99.99,,2013-02-10 19:21:00,
2013-02-10 11:32:00,47.0,38.0,30.11,East,79,0.0,-999.0,72,-99.99,,,-99.99,,2013-02-10 19:32:00,
2013-02-10 11:42:00,47.0,38.0,30.11,East,79,0.0,-999.0,72,-99.99,,,-99.99,,2013-02-10 19:42:00,
2013-02-10 11:51:00,47.0,38.0,30.11,East,79,0.0,-999.0,72,-99.99,,,-99.99,,2013-02-10 19:51:00,
2013-02-10 12:02:00,51.0,39.0,30.10,East,86,0.0,-999.0,64,-99.99,,,-99.99,,2013-02-10 20:02:00,
2013-02-10 12:11:00,51.0,39.0,30.10,East,86,0.0,-999.0,64,-99.99,,,-99.99,,2013-02-10 20:11:00,
2013-02-10 12:21:00,52.0,39.0,30.09,East,86,0.0,-999.0,61,-99.99,,,-99.99,,2013-02-10 20:21:00,
2013-02-10 12:32:00,52.0,38.0,30.08,NE,53,1.0,-999.0,59,-99.99,,,-99.99,,2013-02-10 20:32:00,
2013-02-10 12:42:00,54.0,41.0,30.07,South,180,0.0,-999.0,61,-99.99,,,-99.99,,2013-02-10 20:42:00,
2013-02-10 12:52:00,54.0,41.0,30.07,South,180,0.0,-999.0,61,-99.99,,,-99.99,,2013-02-10 20:52:00,
2013-02-10 13:02:00,55.0,41.0,30.06,SSE,160,0.0,-999.0,59,-99.99,,,-99.99,,2013-02-10 21:02:00,
2013-02-10 13:11:00,55.0,41.0,30.06,SSE,160,0.0,-999.0,59,-99.99,,,-99.99,,2013-02-10 21:11:00,
2013-02-10 13:21:00,56.0,40.0,30.05,SE,139,2.0,-999.0,55,-99.99,,,-99.99,,2013-02-10 21:21:00,
2013-02-10 13:32:00,58.0,40.0,30.04,SE,142,0.0,-999.0,51,-99.99,,,-99.99,,2013-02-10 21:32:00,
2013-02-10 13:42:00,59.0,39.0,30.03,SE,142,1.0,-999.0,48,-99.99,,,-99.99,,2013-02-10 21:42:00,
2013-02-10 13:51:00,59.0,39.0,30.03,SE,142,1.0,-999.0,48,-99.99,,,-99.99,,2013-02-10 21:51:00,
2013-02-10 14:01:00,62.0,42.0,30.03,SE,143,0.0,-999.0,47,-99.99,,,-99.99,,2013-02-10 22:01:00,
2013-02-10 14:11:00,63.0,39.0,30.02,SE,143,0.0,-999.0,41,-99.99,,,-99.99,,2013-02-10 22:11:00,
2013-02-10 14:21:00,63.0,39.0,30.02,SE,143,0.0,-999.0,41,-99.99,,,-99.99,,2013-02-10 22:21:00,
2013-02-10 14:31:00,65.0,41.0,30.02,SE,144,0.0,-999.0,41,-99.99,,,-99.99,,2013-02-10 22:31:00,
2013-02-10 14:42:00,66.0,40.0,30.01,SE,145,0.0,-999.0,39,-99.99,,,-99.99,,2013-02-10 22:42:00,
2013-02-10 14:52:00,66.0,40.0,30.01,SE,145,0.0,-999.0,39,-99.99,,,-99.99,,2013-02-10 22:52:00,
2013-02-10 15:01:00,66.0,43.0,30.01,SSW,201,1.0,-999.0,43,-99.99,,,-99.99,,2013-02-10 23:01:00,
2013-02-10 15:11:00,66.0,43.0,30.01,SSW,201,1.0,-999.0,43,-99.99,,,-99.99,,2013-02-10 23:11:00,
2013-02-10 15:21:00,65.0,45.0,30.01,South,182,1.0,-999.0,49,-99.99,,,-99.99,,2013-02-10 23:21:00,
2013-02-10 15:31:00,65.0,46.0,30.01,South,189,2.0,-999.0,50,-99.99,,,-99.99,,2013-02-10 23:31:00,
2013-02-10 15:41:00,65.0,48.0,30.01,WSW,248,1.0,-999.0,54,-99.99,,,-99.99,,2013-02-10 23:41:00,
2013-02-10 15:52:00,65.0,48.0,30.01,WSW,248,1.0,-999.0,54,-99.99,,,-99.99,,2013-02-10 23:52:00,
2013-02-10 16:01:00,63.0,46.0,30.01,SSE,155,1.0,-999.0,54,-99.99,,,-99.99,,2013-02-11 00:01:00,
2013-02-10 16:11:00,61.0,44.0,30.01,SSE,165,2.0,-999.0,54,-99.99,,,-99.99,,2013-02-11 00:11:00,
2013-02-10 16:21:00,61.0,44.0,30.01,SSE,165,2.0,-999.0,54,-99.99,,,-99.99,,2013-02-11 00:21:00,
2013-02-10 16:31:00,60.0,43.0,30.01,SE,136,2.0,-999.0,54,-99.99,,,-99.99,,2013-02-11 00:31:00,
2013-02-10 16:41:00,60.0,43.0,30.01,SE,136,2.0,-999.0,54,-99.99,,,-99.99,,2013-02-11 00:41:00,
2013-02-10 16:51:00,59.0,43.0,30.01,South,180,2.0,-999.0,55,-99.99,,,-99.99,,2013-02-11 00:51:00,
2013-02-10 17:01:00,57.0,41.0,30.01,SSE,156,4.0,-999.0,54,-99.99,,,-99.99,,2013-02-11 01:01:00,
2013-02-10 17:11:00,57.0,41.0,30.01,SSE,156,4.0,-999.0,54,-99.99,,,-99.99,,2013-02-11 01:11:00,
2013-02-10 17:21:00,57.0,40.0,30.02,SE,146,3.0,-999.0,53,-99.99,,,-99.99,,2013-02-11 01:21:00,
2013-02-10 17:32:00,56.0,41.0,30.02,SE,146,2.0,-999.0,58,-99.99,,,-99.99,,2013-02-11 01:32:00,
2013-02-10 17:41:00,54.0,39.0,30.03,SE,137,3.0,-999.0,57,-99.99,,,-99.99,,2013-02-11 01:41:00,
2013-02-10 17:52:00,54.0,39.0,30.03,SE,137,3.0,-999.0,57,-99.99,,,-99.99,,2013-02-11 01:52:00,
2013-02-10 18:01:00,53.0,39.0,30.03,SE,127,3.0,-999.0,58,-99.99,,,-99.99,,2013-02-11 02:01:00,
2013-02-10 18:11:00,53.0,39.0,30.03,SE,127,3.0,-999.0,58,-99.99,,,-99.99,,2013-02-11 02:11:00,
2013-02-10 18:21:00,52.0,39.0,30.03,SSE,147,3.0,-999.0,60,-99.99,,,-99.99,,2013-02-11 02:21:00,
2013-02-10 18:31:00,51.0,39.0,30.04,SSE,148,2.0,-999.0,64,-99.99,,,-99.99,,2013-02-11 02:31:00,
2013-02-10 18:41:00,50.0,39.0,30.04,SE,130,2.0,-999.0,66,-99.99,,,-99.99,,2013-02-11 02:41:00,
2013-02-10 18:52:00,50.0,39.0,30.04,SE,130,2.0,-999.0,66,-99.99,,,-99.99,,2013-02-11 02:52:00,
2013-02-10 19:01:00,49.0,39.0,30.04,SE,130,1.0,-999.0,69,-99.99,,,-99.99,,2013-02-11 03:01:00,
2013-02-10 19:11:00,49.0,39.0,30.04,SE,130,1.0,-999.0,69,-99.99,,,-99.99,,2013-02-11 03:11:00,
2013-02-10 19:21:00,49.0,40.0,30.05,SE,130,1.0,-999.0,71,-99.99,,,-99.99,,2013-02-11 03:21:00,
2013-02-10 19:31:00,48.0,39.0,30.05,SE,130,0.0,-999.0,72,-99.99,,,-99.99,,2013-02-11 03:31:00,
2013-02-10 19:41:00,47.0,39.0,30.05,SE,130,0.0,-999.0,73,-99.99,,,-99.99,,2013-02-11 03:41:00,
2013-02-10 19:51:00,47.0,39.0,30.05,SE,130,0.0,-999.0,73,-99.99,,,-99.99,,2013-02-11 03:51:00,
2013-02-10 20:01:00,46.0,39.0,30.05,SE,130,0.0,-999.0,75,-99.99,,,-99.99,,2013-02-11 04:01:00,
2013-02-10 20:11:00,46.0,39.0,30.05,SE,130,0.0,-999.0,75,-99.99,,,-99.99,,2013-02-11 04:11:00,
2013-02-10 20:21:00,45.0,38.0,30.05,SE,130,0.0,-999.0,76,-99.99,,,-99.99,,2013-02-11 04:21:00,
2013-02-10 20:31:00,44.0,38.0,30.05,SE,130,0.0,-999.0,78,-99.99,,,-99.99,,2013-02-11 04:31:00,
2013-02-10 20:42:00,44.0,38.0,30.05,SE,130,0.0,-999.0,78,-99.99,,,-99.99,,2013-02-11 04:42:00,
2013-02-10 20:51:00,43.0,37.0,30.06,SE,130,0.0,-999.0,80,-99.99,,,-99.99,,2013-02-11 04:51:00,
2013-02-10 21:01:00,42.0,37.0,30.07,SE,130,0.0,-999.0,81,-99.99,,,-99.99,,2013-02-11 05:01:00,
2013-02-10 21:11:00,41.0,36.0,30.07,SE,130,0.0,-999.0,83,-99.99,,,-99.99,,2013-02-11 05:11:00,
2013-02-10 21:22:00,41.0,36.0,30.07,SE,130,0.0,-999.0,83,-99.99,,,-99.99,,2013-02-11 05:22:00,
2013-02-10 21:31:00,41.0,37.0,30.07,SE,130,0.0,-999.0,84,-99.99,,,-99.99,,2013-02-11 05:31:00,
2013-02-10 21:41:00,41.0,37.0,30.07,SE,130,0.0,-999.0,84,-99.99,,,-99.99,,2013-02-11 05:41:00,
2013-02-10 21:52:00,40.0,36.0,30.07,SE,130,0.0,-999.0,85,-99.99,,,-99.99,,2013-02-11 05:52:00,
2013-02-10 22:01:00,40.0,36.0,30.08,SE,130,0.0,-999.0,85,-99.99,,,-99.99,,2013-02-11 06:01:00,
2013-02-10 22:11:00,40.0,36.0,30.08,SE,130,0.0,-999.0,85,-99.99,,,-99.99,,2013-02-11 06:11:00,
2013-02-10 22:21:00,39.0,35.0,30.07,SE,130,0.0,-999.0,86,-99.99,,,-99.99,,2013-02-11 06:21:00,
2013-02-10 22:31:00,39.0,35.0,30.08,SE,130,0.0,-999.0,87,-99.99,,,-99.99,,2013-02-11 06:31:00,
2013-02-10 22:42:00,39.0,35.0,30.08,SE,130,0.0,-999.0,87,-99.99,,,-99.99,,2013-02-11 06:42:00,
2013-02-10 22:51:00,39.0,35.0,30.08,SE,130,0.0,-999.0,87,-99.99,,,-99.99,,2013-02-11 06:51:00,
2013-02-10 23:01:00,38.0,35.0,30.08,SE,130,0.0,-999.0,88,-99.99,,,-99.99,,2013-02-11 07:01:00,
2013-02-10 23:11:00,38.0,35.0,30.08,SE,130,0.0,-999.0,89,-99.99,,,-99.99,,2013-02-11 07:11:00,
2013-02-10 23:21:00,38.0,35.0,30.08,SE,130,0.0,-999.0,89,-99.99,,,-99.99,,2013-02-11 07:21:00,
2013-02-10 23:31:00,38.0,35.0,30.09,SE,130,0.0,-999.0,88,-99.99,,,-99.99,,2013-02-11 07:31:00,
2013-02-10 23:41:00,38.0,35.0,30.09,SE,130,0.0,-999.0,89,-99.99,,,-99.99,,2013-02-11 07:41:00,
2013-02-10 23:51:00,38.0,35.0,30.09,SE,130,0.0,-999.0,89,-99.99,,,-99.99,,2013-02-11 07:51:00,